Location: Archemont
(49.1579°N, 1.7598°E)
Time: 05:08:57
(UTC+00:00)

BlueWalker 3 - Pass Details

Date: 03 March 2024
Orbit: 485 x 495 km, 53.2° (Epoch: 24 April)

Event Time Altitude Azimuth Distance (km) Brightness Sun altitude
Rises 20:17:12 0° 287° (WNW) 2,558 6.9 -26.1°
Reaches altitude 10° 20:20:08 10° 263° (W) 1,670 5.3 -26.5°
Enters shadow 20:22:13 15° 229° (SW) 1,400 4.4 -26.8°
